Flag for New Zealand Weather past 2 weeks in Christchurch, New Zealand

Now
52 °F

Cool.


Feels Like: 51 °F
Forecast: 52 / 67 °F
Wind: 5 mph from Northeast

Location: Christchurch Airport


UV Index: 0 (Low)

Visibility: N/A


Pressure: 29.36 "Hg

Humidity: 94%

Dew point: 50 °F

Location of ChristchurchLocation

Historic Weather in Christchurch

°F

Christchurch temperature yesterday

Maximum temperature yesterday: 66 °F (at 1:00 PM)
Minimum temperature yesterday: 52 °F (at 9:30 PM)
Average temperature yesterday: 59 °F

Past Weeks' High & Low Weather Summary

 TemperatureHumidityPressure
High66 °F (Apr 19, 1:00 PM)100% (Apr 5, 5:00 AM)30.42 "Hg (Apr 5, 5:00 AM)
Low41 °F (Apr 14, 1:30 AM)67% (Apr 13, 1:00 PM)29.36 "Hg (Apr 19, 11:00 PM)
Average55 °F94%30.05 "Hg
* Reported Apr 5 1:00 AM — Apr 20 12:30 AM, Christchurch, Weather by CustomWeather, © 2014

Note: Actual official high and low records may vary slightly from our data, if they occured in-between our weather recording intervals... More about our weather records

Advertising

Historic Weather Conditions — Data for Previous 24 hours

 ConditionsComfort  
Time TempWeatherWind HumidityBarometerVisibility
12:30 AM
Apr 20
50 °FCool.No wind100%29.36 "HgN/A
12:00 AM54 °FCool.2 mph88%29.36 "HgN/A
11:30 PM
Apr 19
54 °FCool.1 mph94%29.36 "HgN/A
11:00 PM54 °FCool.No wind94%29.36 "HgN/A
10:30 PM54 °FCool.No wind94%29.39 "HgN/A
10:00 PM54 °FCool.1 mph88%29.39 "HgN/A
9:30 PM52 °FCool.No wind94%29.39 "HgN/A
9:00 PM55 °FCool.2 mph82%29.39 "HgN/A
8:30 PM55 °FCool.1 mph88%29.39 "HgN/A
8:00 PM57 °FCool.3 mph82%29.39 "HgN/A
7:30 PM59 °FCool.8 mph82%29.39 "HgN/A
7:00 PM59 °FCool.10 mph82%29.39 "HgN/A
6:30 PM59 °FCool.12 mph82%29.39 "HgN/A
6:00 PM59 °FCool.12 mph88%29.39 "HgN/A
5:30 PM61 °FCool.10 mph83%29.39 "HgN/A
5:00 PM63 °FMild.13 mph77%29.39 "HgN/A
4:30 PM64 °FMild.13 mph73%29.42 "HgN/A
4:00 PM66 °FMild.10 mph73%29.42 "HgN/A
3:30 PM66 °FMild.13 mph73%29.42 "HgN/A
3:00 PM66 °FMild.15 mph78%29.42 "HgN/A
2:30 PM64 °FMild.15 mph83%29.45 "HgN/A
2:00 PM66 °FMild.15 mph78%29.45 "HgN/A
1:30 PM64 °FMild.14 mph83%29.45 "HgN/A
1:00 PM66 °FMild.13 mph78%29.47 "HgN/A
12:30 PM64 °FMild.15 mph83%29.50 "HgN/A
12:00 PM63 °FMild.16 mph88%29.50 "HgN/A
11:30 AM63 °FMild.14 mph88%29.53 "HgN/A
11:00 AM63 °FPassing clouds.13 mph88%29.53 "HgN/A
10:30 AM61 °FPassing clouds.13 mph94%29.53 "HgN/A
10:00 AM61 °FCool.15 mph94%29.53 "HgN/A
9:30 AM59 °FFog.16 mph94%29.53 "Hg3 mi
9:00 AM57 °FScattered clouds.13 mph100%29.56 "Hg4 mi
8:30 AM57 °FDense fog.12 mph100%29.56 "Hg1 mi
8:00 AM57 °FFog.7 mph100%29.56 "Hg0 mi
7:30 AM55 °FFog.6 mph100%29.56 "Hg1 mi
7:00 AM57 °FFog.7 mph100%29.56 "Hg1 mi
6:30 AM57 °FFog.10 mph100%29.56 "Hg1 mi
6:00 AM57 °FFog.7 mph100%29.56 "Hg1 mi
5:30 AM57 °FFog.12 mph100%29.59 "Hg1 mi
5:00 AM57 °FFog.10 mph100%29.59 "Hg3 mi
4:30 AM57 °FFog.12 mph100%29.59 "Hg3 mi
4:00 AM57 °FFog.13 mph100%29.59 "Hg3 mi
3:30 AM57 °FLow clouds.10 mph100%29.62 "Hg4 mi
3:00 AM57 °FFog.13 mph100%29.62 "Hg3 mi
2:30 AM57 °FFog.10 mph100%29.62 "Hg3 mi
2:00 AM57 °FFog.10 mph100%29.62 "Hg2 mi
1:30 AM57 °FFog.13 mph100%29.62 "Hg3 mi
1:00 AM59 °FFog.13 mph100%29.65 "Hg3 mi
Weather by CustomWeather, © 2014

See weather overview